STARLINK-2692

operational
NORAD ID: 48434 Int'l Des: 2021-040 Owner: SPXS Country: US Constellation: starlink
LEOCIRCULARSTARLINK_TYPE

STARLINK-2692について

説明を読み込み中...

リアルタイム位置

3D地球を読み込み中...

次回通過

高度履歴

Altitude vs Time

uPlot chart will show altitude changes over time

軌道要素

1 48434U 21040G 25251.97255520 .00003441 00000-0 24980-3 0 9998
2 48434 53.0523 252.8935 0001564 112.0124 248.1031 15.06401703239587
Epoch: Sep 8, 2025 • Age: 11 hours

現在のステータス

高度 551.3 km
速度 7.59 km/s
衛星直下点 45.34°N, 149.74°E
打ち上げ日 May 9, 2021
運用期間 4.3 years
タイプ internet

技術仕様

分類 Payload
質量 260.00 kg
乾燥質量 248.00 kg
総質量 260.00 kg
長さ 0.20 m
直径 2.80 m
スパン 9.00 m
形状 Box + pan
製造者 SPXS
バスタイプ Starlink
フェーズステータス In Orbit
所有者/国 SPXS/US

大規模コンステレーション

Loading constellations...